[[{"header":{"parameterUnit":"m.s-1","parameterCategory":1,"la1":30.2991,"la2":30.254,"lo1":-89.0895,"lo2":-89.0444,"dy":0.0017,"dx":0.0017,"nx":28,"ny":28,"refTime":"2024-02-24T09:00:00:Z","depth":0,"parameterNumber":2,"parameterNumberName":"U-component_of_WINDS"},"data":[0,0,0,0,0,0,0,0,0,0,0,0,0,0,0,0,0,0,0,0,0,0,0,0,0,0,0,0,0,0,0,0,0,0,0,0,0,0,0,0,0,0,0,0,0,0,0,0,0,0,0,0,0,0,0,0,0,0,3.5205,3.5207,0,3.5312,3.5313,3.5314,3.5276,3.5273,3.5271,3.5268,3.538,3.5385,3.539,0,0,0,0,0,0,0,0,0,0,0,0,0,3.4971,3.4976,3.5205,3.5207,3.5208,3.5312,3.5313,3.5315,3.5276,3.5273,3.527,3.5267,3.5378,3.5384,3.539,0,0,0,0,0,0,0,0,0,0,0,0,0,3.5075,3.4977,3.5205,3.5201,3.5202,3.5311,3.5313,3.5315,3.5277,3.5273,3.5269,3.5266,3.5376,3.5383,3.5391,3.5512,0,0,3.5415,3.5418,0,0,0,0,0,0,0,0,3.5069,3.5084,3.52,3.5202,3.5203,3.5277,3.5271,3.5381,3.5277,3.5248,3.5268,3.5264,3.5348,3.5358,3.5386,3.5517,3.5521,3.5416,3.542,3.5424,3.5426,0,0,0,0,0,0,0,3.5062,3.5079,3.5247,3.5202,3.5204,3.5195,3.5206,3.5292,3.5317,3.5251,3.5248,3.5261,3.5348,3.5379,3.5389,3.5523,3.5415,3.5422,3.5427,3.543,3.576,3.5764,0,0,0,0,0,0,3.5054,3.5073,3.5244,3.5251,3.5126,3.5202,3.5214,3.5257,3.5316,3.5322,3.5264,3.5259,3.5367,3.5379,3.5392,3.5539,3.5424,3.5431,3.5435,3.5756,3.5761,3.5765,0,0,0,0,0,0,3.5049,3.507,3.524,3.5161,3.5182,3.521,3.5258,3.5261,3.5291,3.5326,3.5331,3.529,3.5365,3.5381,3.5483,3.5542,3.5435,3.5442,3.5751,3.5758,3.5763,3.5832,0,0,0,0,0,0,3.5043,3.5068,3.5113,3.5163,3.5187,3.5328,3.5262,3.5265,3.5304,3.5299,3.5352,3.5358,3.5363,3.5471,3.549,3.5551,3.5448,3.5746,3.5754,3.5761,3.5824,3.5839,3.5852,0,0,0,0,0,3.5034,3.5128,3.5116,3.5137,3.5244,3.5331,3.5345,3.5349,3.5309,3.5356,3.5379,3.5356,3.5532,3.5482,3.5503,3.5567,3.5742,3.5752,3.5761,3.5818,3.5836,3.5852,0,0,0,0,0,0,3.5086,3.5135,3.5121,3.5234,3.5279,3.5324,3.5383,3.5368,3.5425,3.5417,3.542,3.5433,3.5538,3.5562,3.5505,3.5688,3.5632,3.5645,3.5668,3.5686,3.5699,3.5692,3.5454,0,0,0,0,0,3.511,3.5176,3.5216,3.5311,3.5334,3.5355,3.5393,3.5392,3.5439,3.5458,3.5488,3.5535,3.5601,3.5644,3.5707,3.5827,3.584,3.5882,3.5896,3.5907,3.592,3.5987,3.6007,3.5796,3.5796,3.5795,0,0,3.5161,3.5196,3.5238,3.5322,3.5357,3.5427,3.5371,3.5446,3.5499,3.5469,3.5567,3.5591,3.5644,3.5756,3.5806,3.5779,3.5981,3.5919,3.5928,3.5934,3.5999,3.6019,3.6036,3.5802,3.5801,3.58,0,0,3.529,3.5322,3.5407,3.5443,3.5496,3.5509,3.5529,3.5578,3.5592,3.569,3.5671,3.5733,3.5846,3.5885,3.592,3.6065,3.6047,3.6085,3.6159,3.6225,3.6242,3.6256,3.631,3.6329,3.6097,3.6098,3.6098,0,3.5347,3.545,3.5452,3.553,3.5568,3.5545,3.5631,3.5666,3.5737,3.5765,3.5733,3.5876,3.591,3.6031,3.6067,3.6095,3.612,3.608,3.6239,3.6254,3.6268,3.6319,3.6339,3.6102,3.6101,3.6101,3.6101,0,3.5519,3.5591,3.5653,3.5722,3.5768,3.5849,3.5864,3.591,3.5906,3.5923,3.6024,3.6064,3.6135,3.6163,3.6159,3.6285,3.6267,3.6237,3.6181,3.6292,3.634,3.636,3.6108,3.6107,3.6105,3.6104,0,0,3.5683,3.5753,3.5776,3.5808,3.5865,3.5921,3.6003,3.6072,3.6112,3.6162,3.6231,3.6328,3.6302,3.6341,3.6342,3.6399,3.6514,3.6363,3.6364,3.6391,3.6657,3.668,3.6703,3.6502,3.6506,3.6509,3.6653,0,3.5818,3.596,3.5964,3.6095,3.6163,3.6142,3.6213,3.6256,3.6275,3.6336,3.6356,3.6426,3.6384,3.6408,3.6464,3.6488,3.6568,3.6478,3.6568,3.6572,3.6557,3.6727,3.6752,3.6886,3.6672,3.6675,3.6677,0,3.5994,3.605,3.6188,3.6237,3.6265,3.6329,3.6394,3.6451,3.6501,3.6511,3.6555,3.6548,3.6632,3.6573,3.669,3.6629,3.6666,3.6684,3.6689,3.6699,3.6632,3.6743,3.6929,3.6949,3.6707,3.6704,3.6702,0,3.6103,3.6212,3.6309,3.6337,3.6396,3.6441,3.6468,3.6514,3.6556,3.6613,3.6641,3.6706,3.6743,3.6795,3.6806,3.6761,3.6924,3.6865,3.6936,3.6936,3.6972,3.697,3.7167,3.6994,3.6994,3.6993,3.6993,0,3.6254,3.6339,3.6359,3.6418,3.6514,3.6518,3.6613,3.6636,3.6678,3.6743,3.6728,3.679,3.68,3.6864,3.6873,3.697,3.6987,3.6998,3.6999,3.7,3.6999,3.7025,3.7017,3.6999,3.6997,3.6996,3.6995,0,3.6391,3.6407,3.6512,3.656,3.6574,3.6642,3.6683,3.6741,3.6758,3.6841,3.686,3.6887,3.6962,3.6978,3.7067,3.7073,3.7189,3.7181,3.7172,3.7172,3.7242,3.7236,3.7465,3.7496,3.7301,3.7303,3.7304,0,3.6487,3.6552,3.6607,3.6649,3.6679,3.6747,3.679,3.6797,3.6842,3.6905,3.6955,3.7029,3.7088,3.7208,3.7237,3.7305,3.7299,3.7375,3.7309,3.7308,3.7302,3.7299,3.7306,3.7388,3.739,3.7391,3.7393,0,3.6656,3.6661,3.6723,3.6789,3.684,3.6892,3.6942,3.6977,3.6992,3.7043,3.712,3.7166,3.7256,3.733,3.7399,3.7427,3.7414,3.7413,3.7433,3.7435,3.7428,3.7434,3.7208,3.7408,3.7407,3.7405,3.7405,3.7404,3.6777,3.6835,3.6883,3.6953,3.6991,3.7038,3.7095,3.7119,3.7182,3.7257,3.7257,3.7341,3.7391,3.7481,3.7514,3.7581,3.7557,3.7586,3.7594,3.7601,3.7609,3.7416,3.7593,3.7593,3.7592,3.7592,3.7592,0,3.6947,3.6977,3.7041,3.7111,3.7167,3.7148,3.7202,3.725,3.7324,3.737,3.7429,3.7518,3.7589,3.7623,3.7694,3.7741,3.7737,3.776,3.7757,3.7764,3.7625,3.7601,3.7762,3.7762,3.7762,3.7762,3.7762,3.7762,3.7042,3.7139,3.715,3.7266,3.7296,3.7378,3.741,3.7454,3.7492,3.7591,3.765,3.7672,3.7714,3.7788,3.7854,3.7862,3.789,3.7916,3.7922,3.7791,3.7774,3.7757,3.7735,3.7922,3.7922,3.8056,3.8057,3.8058]},{"header":{"parameterUnit":"m.s-1","parameterCategory":1,"la1":30.2991,"la2":30.254,"lo1":-89.0895,"lo2":-89.0444,"dy":0.0017,"dx":0.0017,"nx":28,"ny":28,"refTime":"2024-02-24T09:00:00:Z","depth":0,"parameterNumber":3,"parameterNumberName":"V-component_of_WINDS"},"data":[0,0,0,0,0,0,0,0,0,0,0,0,0,0,0,0,0,0,0,0,0,0,0,0,0,0,0,0,0,0,0,0,0,0,0,0,0,0,0,0,0,0,0,0,0,0,0,0,0,0,0,0,0,0,0,0,0,0,0.0994,0.0994,0,0.1009,0.101,0.101,0.1013,0.1013,0.1013,0.1013,0.1029,0.103,0.103,0,0,0,0,0,0,0,0,0,0,0,0,0,0.0967,0.0967,0.0994,0.0994,0.0994,0.1009,0.101,0.101,0.1013,0.1013,0.1013,0.1013,0.1029,0.103,0.103,0,0,0,0,0,0,0,0,0,0,0,0,0,0.098,0.0968,0.0994,0.0998,0.0998,0.1009,0.101,0.101,0.1013,0.1013,0.1013,0.1013,0.1029,0.103,0.103,0.1039,0,0,0.1033,0.1033,0,0,0,0,0,0,0,0,0.0979,0.0981,0.0997,0.0998,0.0998,0.1009,0.1006,0.102,0.1014,0.1008,0.1013,0.1013,0.1023,0.1024,0.1027,0.1039,0.104,0.1033,0.1033,0.1034,0.1034,0,0,0,0,0,0,0,0.0979,0.0981,0.1,0.0997,0.0998,0.0999,0.1001,0.1009,0.1016,0.1008,0.1009,0.101,0.1023,0.1027,0.1028,0.104,0.1033,0.1034,0.1034,0.1034,0.1059,0.1059,0,0,0,0,0,0,0.0977,0.098,0.1,0.1001,0.0988,0.0999,0.1001,0.1006,0.1016,0.1017,0.101,0.101,0.1025,0.1027,0.1028,0.1038,0.1034,0.1034,0.1035,0.1058,0.1059,0.1059,0,0,0,0,0,0,0.0976,0.0979,0.0999,0.099,0.0993,0.1,0.1005,0.1006,0.101,0.1018,0.1019,0.1013,0.1025,0.1027,0.1036,0.1039,0.1035,0.1036,0.1058,0.1059,0.1059,0.1058,0,0,0,0,0,0,0.0976,0.0978,0.0982,0.099,0.0993,0.1006,0.1005,0.1007,0.1011,0.1011,0.102,0.1021,0.1025,0.1035,0.1037,0.104,0.1036,0.1058,0.1058,0.1059,0.1058,0.1058,0.1058,0,0,0,0,0,0.0975,0.0981,0.0982,0.0984,0.0998,0.1007,0.1008,0.1013,0.1011,0.1015,0.1019,0.1021,0.1038,0.1035,0.1038,0.1041,0.1058,0.1058,0.1059,0.1057,0.1058,0.1058,0,0,0,0,0,0,0.0973,0.0982,0.0983,0.0993,0.0999,0.1007,0.1012,0.1013,0.102,0.1019,0.1024,0.1026,0.1034,0.1039,0.1036,0.1049,0.1048,0.1049,0.1046,0.1047,0.1047,0.1046,0.1037,0,0,0,0,0,0.0974,0.0981,0.0988,0.0996,0.0999,0.1004,0.1009,0.1011,0.1018,0.102,0.1026,0.1032,0.1038,0.1043,0.1049,0.1058,0.106,0.1061,0.1062,0.1062,0.1063,0.1067,0.1068,0.106,0.106,0.106,0,0,0.0976,0.0982,0.0986,0.0996,0.1001,0.1007,0.1007,0.1014,0.1018,0.1021,0.103,0.1034,0.1041,0.1049,0.1053,0.1053,0.1065,0.1062,0.1063,0.1063,0.1068,0.1068,0.1069,0.106,0.106,0.106,0,0,0.0982,0.0988,0.0994,0.0999,0.1006,0.101,0.1011,0.1019,0.1022,0.103,0.1032,0.1038,0.1049,0.1054,0.1058,0.1065,0.1066,0.1067,0.1069,0.1073,0.1073,0.1074,0.1076,0.1077,0.1067,0.1067,0.1067,0,0.0984,0.0994,0.0998,0.1004,0.1008,0.1011,0.1017,0.1022,0.1031,0.1033,0.1033,0.1046,0.1051,0.1061,0.1062,0.1066,0.1067,0.1066,0.1073,0.1074,0.1074,0.1076,0.1077,0.1067,0.1067,0.1067,0.1067,0,0.0995,0.1001,0.1006,0.1014,0.1019,0.1025,0.103,0.1034,0.1036,0.1039,0.1047,0.1053,0.1061,0.1063,0.1065,0.1072,0.1072,0.1072,0.1071,0.1075,0.1077,0.1078,0.1067,0.1067,0.1067,0.1067,0,0,0.1002,0.1011,0.1013,0.1016,0.1024,0.1029,0.1035,0.1042,0.1046,0.1051,0.1057,0.1066,0.1065,0.107,0.1072,0.1076,0.1081,0.1076,0.1076,0.1076,0.1088,0.1088,0.1089,0.1081,0.1082,0.1082,0.1088,0,0.1009,0.1021,0.1024,0.1033,0.1039,0.1041,0.1046,0.1051,0.1055,0.106,0.1063,0.107,0.1069,0.1072,0.1075,0.1079,0.1083,0.1079,0.1086,0.1086,0.1085,0.109,0.1091,0.1096,0.1089,0.1089,0.1089,0,0.102,0.1025,0.1035,0.1041,0.1044,0.1049,0.1055,0.106,0.1065,0.1067,0.1072,0.1074,0.108,0.1078,0.1086,0.1083,0.1086,0.1089,0.1089,0.109,0.1088,0.1092,0.1098,0.1099,0.109,0.109,0.109,0,0.1024,0.1034,0.1041,0.1044,0.1051,0.1054,0.1057,0.1062,0.1066,0.1071,0.1074,0.108,0.1083,0.1087,0.1091,0.1089,0.1099,0.1097,0.11,0.11,0.1103,0.1103,0.111,0.1104,0.1104,0.1104,0.1104,0,0.1032,0.1038,0.1042,0.1047,0.1053,0.1057,0.1063,0.1066,0.107,0.1075,0.1077,0.1082,0.1086,0.109,0.1093,0.1099,0.1101,0.1102,0.1103,0.1102,0.1102,0.1105,0.1104,0.1105,0.1105,0.1105,0.1104,0,0.1038,0.1041,0.1049,0.1055,0.1056,0.1061,0.1066,0.107,0.1072,0.1078,0.108,0.1084,0.109,0.1094,0.1101,0.1103,0.111,0.111,0.1108,0.1108,0.1111,0.111,0.112,0.1121,0.1115,0.1115,0.1115,0,0.1043,0.1047,0.1053,0.1056,0.1059,0.1065,0.1068,0.1071,0.1075,0.1081,0.1084,0.109,0.1094,0.1103,0.1107,0.1113,0.1113,0.1116,0.1114,0.1113,0.1113,0.1113,0.1113,0.1117,0.1117,0.1117,0.1117,0,0.1051,0.1052,0.1057,0.1063,0.1067,0.1071,0.1075,0.1078,0.1081,0.1085,0.1091,0.1095,0.1102,0.1107,0.1113,0.1116,0.1117,0.1117,0.1118,0.1118,0.1116,0.1117,0.1109,0.1117,0.1117,0.1117,0.1117,0.1117,0.1057,0.1061,0.1065,0.107,0.1074,0.1078,0.1081,0.1084,0.1089,0.1095,0.1096,0.1102,0.1106,0.1114,0.1117,0.1121,0.1121,0.1122,0.1123,0.1123,0.1123,0.1115,0.1122,0.1122,0.1122,0.1122,0.1122,0,0.1065,0.1068,0.1073,0.1078,0.1082,0.1082,0.1087,0.109,0.1095,0.1099,0.1104,0.111,0.1115,0.1118,0.1124,0.1126,0.1127,0.1128,0.1127,0.1128,0.1123,0.1122,0.1127,0.1127,0.1127,0.1127,0.1127,0.1127,0.107,0.1076,0.1078,0.1086,0.1088,0.1094,0.1096,0.11,0.1103,0.1109,0.1113,0.1116,0.1119,0.1125,0.1129,0.113,0.1132,0.1132,0.1133,0.1129,0.1128,0.1128,0.1127,0.1133,0.1133,0.1138,0.1138,0.1138]}]]